This demonstration page uses our WeatherBlox Daily Observations layout. Learn more.

Left ArrowRight Arrow

Hourly Observations for December 7, 2019

Temp ( °F °C ) Dew Point ( °F °C ) Humidity (%) Winds ( mph kmh ) Pressure ( in mb ) Visibility ( mi km ) Precip ( " mm )
12:10 am 00:10 Cloudy with Rain 54 12.2 52 11.1 93 93 S 22 35 29.85 1011 3 4 0.04 1.02
12:21 am 00:21 Cloudy with Rain 54 12.2 52 11.1 93 93 S 22 35 29.85 1011 3 4 0.07 1.78
12:27 am 00:27 Cloudy with Light Rain 54 12.2 52 11.1 93 93 S 24 39 29.85 1011 3 5 0.08 2.03
12:53 am 00:53 Cloudy with Light Rain 55 12.8 52 11.1 90 90 S 24 39 29.84 1011 10 16 0.11 2.79
1:53 am 01:53 Cloudy with Rain 55 12.8 52 11.1 90 90 S 26 43 29.83 1010 3 5 0.03 0.76
2:29 am 02:29 Cloudy with Light Rain 55 12.8 52 11.1 90 90 S 30 48 29.85 1011 9 14 0.02 0.51
2:40 am 02:40 Cloudy with Light Rain 54 12.2 52 11.1 93 93 S 21 33 29.85 1011 5 8 0.02 0.51
2:53 am 02:53 Cloudy with Light Rain 55 12.8 52 11.1 90 90 S 24 39 29.85 1011 9 14 0.03 0.76
3:53 am 03:53 Cloudy 55 12.8 52 11.1 90 90 S 24 39 29.83 1010 9 14 0.00 0.00
4:53 am 04:53 Cloudy 56 13.3 52 11.1 87 87 S 26 43 29.81 1010 10 16 0.01 0.25
5:53 am 05:53 Cloudy 56 13.3 52 11.1 87 87 SSE 22 35 29.81 1010 10 16 0.00 0.00
6:53 am 06:53 Cloudy 57 13.9 52 11.1 83 83 S 23 37 29.82 1010 10 16 0.00 0.00
7:53 am 07:53 Cloudy with Light Rain 56 13.3 52 11.1 87 87 S 26 43 29.80 1009 10 16 0.00 0.00
8:18 am 08:18 Cloudy with Light Rain 56 13.3 52 11.1 87 87 S 22 35 29.81 1010 10 16 0.01 0.25
8:53 am 08:53 Cloudy with Light Rain 57 13.9 52 11.1 83 83 SSE 20 31 29.79 1009 8 13 0.02 0.51
9:03 am 09:03 Cloudy 57 13.9 51 10.6 81 81 SSE 26 43 29.80 1009 10 16 0.01 0.25
9:27 am 09:27 Cloudy with Rain 56 13.3 52 11.1 87 87 S 30 48 29.80 1009 3 5 0.03 0.76
9:34 am 09:34 Cloudy with Rain 56 13.3 52 11.1 87 87 S 25 41 29.80 1009 3 4 0.05 1.27
9:53 am 09:53 Cloudy with Rain 56 13.3 53 11.7 90 90 S 36 57 29.79 1009 3 4 0.13 3.30
10:08 am 10:08 Cloudy with Rain 56 13.3 52 11.1 87 87 S 18 30 29.81 1010 3 5 0.07 1.78
10:17 am 10:17 Cloudy with Rain 56 13.3 52 11.1 87 87 S 26 43 29.80 1009 3 5 0.10 2.54
10:31 am 10:31 Cloudy with Rain 56 13.3 52 11.1 87 87 S 30 48 29.79 1009 3 5 0.15 3.81
10:53 am 10:53 Cloudy with Rain 56 13.3 52 11.1 87 87 S 25 41 29.79 1009 5 8 0.20 5.08
11:02 am 11:02 Cloudy with Nearby Thunderstorms 56 13.3 52 11.1 87 87 S 23 37 29.80 1009 4 6 0.02 0.51
11:18 am 11:18 Cloudy with Light Rain 56 13.3 53 11.7 90 90 S 18 30 29.78 1009 3 5 0.10 2.54
11:33 am 11:33 Cloudy with Rain 56 13.3 52 11.1 87 87 S 24 39 29.77 1008 5 8 0.11 2.79
11:53 am 11:53 Cloudy with Light Rain 56 13.3 53 11.7 90 90 S 22 35 29.76 1008 5 8 0.14 3.56
12:28 pm 12:28 Cloudy with Light Rain 56 13.3 53 11.7 90 90 VRB 7 11 29.74 1007 7 11 0.08 2.03
12:36 pm 12:36 Cloudy with Heavy Rain 54 12.2 52 11.1 93 93 WNW 8 13 29.75 1008 1 2 0.09 2.29
12:41 pm 12:41 Cloudy with Heavy Rain 53 11.7 52 11.1 96 96 SSW 13 20 29.74 1007 1 1 0.32 8.13
12:51 pm 12:51 Cloudy with Heavy Rain 55 13 54 12 94 94 SSW 12 19 29.75 1008 1 1 0.71 18.03
12:53 pm 12:53 Cloudy with Heavy Rain 55 12.8 53 11.7 93 93 WSW 7 11 29.74 1007 1 1 0.72 18.29
12:57 pm 12:57 Cloudy with Rain 54 12.2 52 11.1 93 93 W 9 15 29.75 1008 2 3 0.03 0.76
12:59 pm 12:59 Cloudy with Rain 54 12.2 52 11.1 93 93 W 9 15 29.75 1008 2 3 0.04 1.02
1:06 pm 13:06 Cloudy with Heavy Rain 53 11.7 51 10.6 93 93 WSW 14 22 29.76 1008 3 5 0.09 2.29
1:22 pm 13:22 Cloudy with Nearby Thunderstorms 55 12.8 52 11.1 90 90 SE 15 24 29.74 1007 1 1 0.50 12.70
1:31 pm 13:31 Cloudy with Nearby Thunderstorms 55 12.8 52 11.1 90 90 W 7 11 29.74 1007 2 2 0.79 20.07
1:33 pm 13:33 Cloudy with Nearby Thunderstorms 55 12.8 52 11.1 90 90 WSW 7 11 29.74 1007 3 5 0.80 20.32
1:40 pm 13:40 Cloudy with Heavy Rain 55 12.8 52 11.1 90 90 SSW 6 9 29.74 1007 2 3 0.84 21.34
1:44 pm 13:44 Cloudy with Nearby Thunderstorms 54 12.2 52 11.1 93 93 VRB 6 9 29.75 1008 1 2 0.90 22.86
1:53 pm 13:53 Cloudy with Nearby Thunderstorms 53 11.7 52 11.1 96 96 VRB 5 7 29.74 1007 1 1 1.01 25.65
1:55 pm 13:55 Cloudy with Nearby Thunderstorms 53 11.7 51 10.6 93 93 W 12 19 29.73 1007 1 2 0.02 0.51
2:11 pm 14:11 Cloudy with Thunderstorms 53 11.7 49 9.4 86 86 S 9 15 29.71 1006 2 2 0.21 5.33
2:16 pm 14:16 Cloudy with Thunderstorms 53 11.7 49 9.4 86 86 SSE 14 22 29.72 1007 3 5 0.22 5.59
2:42 pm 14:42 Cloudy with Nearby Thunderstorms 52 11.1 50 10 93 93 SSW 5 7 29.77 1008 3 5 0.32 8.13
2:53 pm 14:53 Cloudy with Mist and Fog 52 11.1 50 10 93 93 SSE 6 9 29.75 1007 3 5 0.32 8.13
3:13 pm 15:13 Cloudy 53 11.7 50 10 89 89 SW 5 7 29.75 1008 10 16 0.01 0.25
3:53 pm 15:53 Mostly Cloudy 57 13.9 53 11.7 87 87 S 9 15 29.73 1007 10 16 0.01 0.25
4:04 pm 16:04 Partly Cloudy 57 13.9 53 11.7 87 87 S 9 15 29.74 1007 10 16 0.00 0.00
4:38 pm 16:38 Cloudy 56 13.3 53 11.7 90 90 Calm 29.77 1008 10 16 0.00 0.00
4:45 pm 16:45 Cloudy 57 13.9 52 11.1 83 83 Calm 29.77 1008 10 16 0.00 0.00
4:53 pm 16:53 Cloudy 57 13.9 53 11.7 87 87 VRB 7 11 29.76 1008 10 16 0.00 0.00
5:53 pm 17:53 Cloudy 57 13.9 52 11.1 83 83 S 21 33 29.74 1007 10 16 0.00 0.00
6:01 pm 18:01 Cloudy 57 13.9 52 11.1 83 83 S 16 26 29.75 1007 10 16 0.00 0.00
6:53 pm 18:53 Mostly Cloudy 57 13.9 52 11.1 83 83 S 20 31 29.76 1008 10 16 0.00 0.00
7:53 pm 19:53 Cloudy 57 13.9 52 11.1 83 83 S 20 31 29.78 1009 10 16 0.00 0.00
8:53 pm 20:53 Cloudy with Light Rain 56 13.3 51 10.6 84 84 S 17 28 29.79 1009 10 16 0.00 0.00
9:53 pm 21:53 Mostly Clear 56 13.3 50 10 81 81 S 23 37 29.80 1009 10 16 0.00 0.00
10:10 pm 22:10 Mostly Cloudy 55 12.8 50 10 83 83 S 22 35 29.82 1010 10 16 0.00 0.00
10:53 pm 22:53 Cloudy 55 12.8 51 10.6 87 87 S 22 35 29.82 1010 10 16 0.00 0.00
11:53 pm 23:53 Cloudy 55 12.8 51 10.6 87 87 S 21 33 29.84 1011 10 16 0.00 0.00

Powered by AerisWeather